Powrót do katalogu

HYPSO-2

AktywnyNaukaSSO
NORAD 60531·PAYLOAD·🇳🇴 Norway

Wystrzelony Aug 16, 2024 z Vandenberg Space Force Base

Loading…

Następne Przeloty (najbliższe 24 godziny)

TLE

ŚwieżeSource: Space-Track

Epoka: Sep 14, 2026, 10:48 UTC

1 60531U 24149BR  26257.45010299  .00000957  00000-0  83453-4 0  9995
2 60531  97.6775 332.4044 0002372  53.1369 307.0071 14.99150949113429

Śledź HYPSO-2 w czasie rzeczywistym z AllMySat

Download on the App Store